Flag for Netherlands Weather past 2 weeks in Eindhoven, Netherlands

Now
59 °F

Broken clouds.


Feels Like: 58 °F
Forecast: 52 / 75 °F
Wind: 6 mph from North

Location: Eindhoven Airport


UV Index: 3 (Moderate)

Visibility: N/A


Pressure: 29.98 "Hg

Humidity: 88%

Dew point: 55 °F

Location of EindhovenLocation

Historic Weather in Eindhoven

°F

Eindhoven temperature yesterday

Maximum temperature yesterday: 72 °F (at 4:55 PM)
Minimum temperature yesterday: 43 °F (at 3:25 AM)
Average temperature yesterday: 57 °F

Past Weeks' High & Low Weather Summary

 TemperatureHumidityPressure
High72 °F (Apr 20, 4:25 PM)100% (Apr 12, 2:55 AM)30.45 "Hg (Apr 12, 2:55 AM)
Low30 °F (Apr 16, 3:55 AM)26% (Apr 17, 3:55 PM)29.62 "Hg (Apr 20, 5:25 PM)
Average52 °F70%30.04 "Hg
* Reported Apr 9 6:25 PM — Apr 24 6:55 PM, Eindhoven, Weather by CustomWeather, © 2014

Note: Actual official high and low records may vary slightly from our data, if they occured in-between our weather recording intervals... More about our weather records

Advertising

Historic Weather Conditions — Data for Previous 24 hours

 ConditionsComfort  
Time TempWeatherWind HumidityBarometerVisibility
6:55 PM
Apr 24
59 °FThunderstorms. Mostly cloudy.7 mph88%29.98 "HgN/A
6:25 PM63 °FThunderstorms. Partly sunny.9 mph73%29.98 "HgN/A
5:55 PM63 °FThunderstorms. Mostly cloudy.10 mph73%29.98 "HgN/A
5:25 PM72 °FThunderstorms. More clouds than sun.9 mph50%29.98 "HgN/A
4:55 PM70 °FPartly sunny.7 mph53%30.01 "HgN/A
4:25 PM70 °FPartly sunny.5 mph50%30.01 "HgN/A
3:55 PM72 °FPartly sunny.3 mph47%30.01 "HgN/A
3:25 PM70 °FPartly sunny.6 mph50%30.04 "HgN/A
2:55 PM70 °FScattered clouds.8 mph50%30.04 "HgN/A
2:25 PM68 °FBroken clouds.7 mph53%30.07 "HgN/A
1:55 PM68 °FPassing clouds.8 mph56%30.07 "HgN/A
1:25 PM66 °FPartly sunny.9 mph60%30.07 "Hg5 mi
12:55 PM63 °FPartly sunny.5 mph64%30.09 "Hg6 mi
12:25 PM64 °FPartly sunny.6 mph60%30.09 "Hg5 mi
11:55 AM61 °FOvercast.5 mph68%30.09 "Hg6 mi
11:25 AM61 °FOvercast.6 mph72%30.09 "Hg6 mi
11:03 AM61 °FOvercast.3 mph68%30.09 "Hg4 mi
10:55 AM61 °FOvercast.5 mph68%30.09 "HgN/A
10:25 AM61 °FOvercast.3 mph68%30.09 "HgN/A
9:55 AM61 °FOvercast.3 mph68%30.09 "HgN/A
9:25 AM57 °FOvercast.2 mph82%30.09 "HgN/A
9:04 AM55 °FFog.3 mph82%30.09 "Hg5 mi
8:55 AM55 °FFog.2 mph82%30.09 "Hg4 mi
8:25 AM52 °FFog.2 mph94%30.09 "Hg3 mi
7:59 AM50 °FFog.1 mph94%30.09 "Hg3 mi
7:55 AM50 °FFog.No wind94%30.09 "Hg3 mi
7:25 AM48 °FFog.2 mph94%30.09 "Hg3 mi
6:55 AM48 °FFog.1 mph94%30.07 "Hg3 mi
6:25 AM46 °FFog.1 mph93%30.07 "Hg3 mi
6:03 AM46 °FFog.2 mph100%30.07 "Hg3 mi
5:55 AM46 °FFog.2 mph93%30.07 "Hg2 mi
5:25 AM46 °FFog.No wind100%30.07 "Hg4 mi
5:04 AM46 °FFog.1 mph93%30.07 "Hg3 mi
4:55 AM46 °FFog.No wind100%30.07 "Hg4 mi
4:25 AM46 °FFog.1 mph93%30.07 "Hg3 mi
3:59 AM45 °FFog.2 mph100%30.07 "Hg2 mi
3:55 AM45 °FFog.2 mph100%30.07 "Hg2 mi
3:25 AM46 °FFog.1 mph93%30.07 "Hg2 mi
3:00 AM46 °FFog.1 mph100%30.09 "Hg2 mi
2:55 AM46 °FFog.2 mph100%30.09 "Hg3 mi
2:25 AM45 °FFog.1 mph100%30.09 "Hg2 mi
1:55 AM45 °FFog.2 mph100%30.09 "Hg4 mi
1:25 AM46 °FFog.1 mph100%30.09 "Hg6 mi
1:04 AM48 °FFog.2 mph94%30.09 "Hg4 mi
12:25 AM50 °FCool.No wind88%30.09 "HgN/A
11:55 PM
Apr 23
50 °FPassing clouds.3 mph88%30.09 "HgN/A
11:25 PM52 °FCool.2 mph82%30.09 "HgN/A
11:04 PM52 °FCool.1 mph82%30.09 "HgN/A
10:25 PM52 °FCool.1 mph82%30.09 "HgN/A
9:55 PM55 °FPassing clouds.1 mph72%30.09 "HgN/A
9:25 PM57 °FCool.2 mph67%30.09 "HgN/A
8:55 PM59 °FCool.1 mph68%30.07 "HgN/A
8:25 PM64 °FMild.3 mph49%30.07 "HgN/A
Weather by CustomWeather, © 2014

See weather overview